| time (UTC) | temp C | wind direction | speed KPH | gust KPH | rain 1hr cm | rain 24hr cm | rain mn cm | humidity % | barometer mb |
| 20260505124743 | 15 | 276 | 1.6 | 3.2 | 0.00 | 0.00 | 0.00 | 18 | 1001.4 |
| 20260505124239 | 15 | 281 | 1.6 | 3.2 | 0.00 | 0.00 | 0.00 | 19 | 1001.1 |
| 20260505123735 | 15 | 293 | 0.0 | 0.0 | 0.00 | 0.00 | 0.00 | 20 | 1001.1 |
| 20260505123232 | 14 | 282 | 0.0 | 0.0 | 0.00 | 0.00 | 0.00 | 20 | 1001.4 |
| 20260505122728 | 13 | 327 | 0.0 | 1.6 | 0.00 | 0.00 | 0.00 | 19 | 1001.1 |
| 20260505122225 | 13 | 291 | 0.0 | 1.6 | 0.00 | 0.00 | 0.00 | 21 | 1001.4 |
| 20260505121716 | 13 | 292 | 0.0 | 3.2 | 0.00 | 0.00 | 0.00 | 22 | 1001.1 |
| 20260505121213 | 13 | 271 | 3.2 | 3.2 | 0.00 | 0.00 | 0.00 | 19 | 1001.1 |
| 20260505120710 | 13 | 323 | 0.0 | 1.6 | 0.00 | 0.00 | 0.00 | 21 | 1000.8 |
| 20260505120205 | 13 | 291 | 0.0 | 1.6 | 0.00 | 0.00 | 0.00 | 20 | 1000.8 |
| 20260505115659 | 13 | 285 | 0.0 | 1.6 | 0.00 | 0.00 | 0.00 | 20 | 1000.8 |
| 20260505115157 | 13 | 280 | 0.0 | 1.6 | 0.00 | 0.00 | 0.00 | 21 | 1000.8 |
| 20260505114654 | 13 | 292 | 0.0 | 0.0 | 0.00 | 0.00 | 0.00 | 21 | 1000.8 |
| 20260505114150 | 13 | 290 | 0.0 | 0.0 | 0.00 | 0.00 | 0.00 | 21 | 1000.8 |
| 20260505113647 | 12 | 288 | 0.0 | 0.0 | 0.00 | 0.00 | 0.00 | 19 | 1001.1 |
| 20260505113143 | 12 | 290 | 0.0 | 1.6 | 0.00 | 0.00 | 0.00 | 18 | 1001.1 |
| 20260505112639 | 12 | 292 | 0.0 | 1.6 | 0.00 | 0.00 | 0.00 | 18 | 1001.1 |
| 20260505112137 | 12 | 275 | 0.0 | 1.6 | 0.00 | 0.00 | 0.00 | 19 | 1000.8 |
| 20260505111631 | 11 | 280 | 0.0 | 0.0 | 0.00 | 0.00 | 0.00 | 20 | 1000.8 |
| 20260505111128 | 11 | 291 | 0.0 | 0.0 | 0.00 | 0.00 | 0.00 | 20 | 1001.1 |
| 20260505110624 | 11 | 291 | 0.0 | 0.0 | 0.00 | 0.00 | 0.00 | 20 | 1001.1 |
| 20260505110121 | 11 | 289 | 0.0 | 0.0 | 0.00 | 0.00 | 0.00 | 20 | 1001.1 |
| 20260505102057 | 10 | 295 | 0.0 | 0.0 | 0.00 | 0.00 | 0.00 | 22 | 1001.1 |
| 20260505101555 | 10 | 291 | 0.0 | 0.0 | 0.00 | 0.00 | 0.00 | 22 | 1001.1 |
| 20260505101051 | 10 | 291 | 0.0 | 1.6 | 0.00 | 0.00 | 0.00 | 22 | 1001.1 |
| 20260505100548 | 10 | 293 | 0.0 | 1.6 | 0.00 | 0.00 | 0.00 | 21 | 1001.1 |
| 20260505100045 | 10 | 292 | 0.0 | 0.0 | 0.00 | 0.00 | 0.00 | 21 | 1001.1 |
| 20260505095541 | 10 | 295 | 0.0 | 0.0 | 0.00 | 0.00 | 0.00 | 21 | 1001.1 |
| 20260505095038 | 10 | 292 | 0.0 | 0.0 | 0.00 | 0.00 | 0.00 | 21 | 1000.8 |
| 20260505094534 | 10 | 289 | 0.0 | 0.0 | 0.00 | 0.00 | 0.00 | 21 | 1001.1 |
| 20260505094030 | 10 | 290 | 0.0 | 0.0 | 0.00 | 0.00 | 0.00 | 21 | 1001.4 |
| 20260505093527 | 10 | 290 | 0.0 | 0.0 | 0.00 | 0.00 | 0.00 | 21 | 1001.1 |
| 20260505093024 | 10 | 290 | 0.0 | 0.0 | 0.00 | 0.00 | 0.00 | 21 | 1001.1 |
| 20260505092522 | 10 | 294 | 0.0 | 0.0 | 0.00 | 0.00 | 0.00 | 21 | 1001.1 |
| 20260505092020 | 10 | 295 | 0.0 | 0.0 | 0.00 | 0.00 | 0.00 | 21 | 1001.1 |
| 20260505091516 | 10 | 292 | 0.0 | 0.0 | 0.00 | 0.00 | 0.00 | 21 | 1001.1 |
| 20260505091015 | 10 | 292 | 0.0 | 0.0 | 0.00 | 0.00 | 0.00 | 21 | 1000.8 |
| 20260505090512 | 10 | 288 | 0.0 | 0.0 | 0.00 | 0.00 | 0.00 | 21 | 1000.8 |
| 20260505090010 | 10 | 287 | 0.0 | 0.0 | 0.00 | 0.00 | 0.00 | 21 | 1000.8 |
| 20260505085508 | 10 | 287 | 0.0 | 0.0 | 0.00 | 0.00 | 0.00 | 21 | 1001.1 |
| 20260505085006 | 10 | 290 | 0.0 | 0.0 | 0.00 | 0.00 | 0.00 | 21 | 1001.1 |
| 20260505084504 | 11 | 291 | 0.0 | 0.0 | 0.00 | 0.00 | 0.00 | 21 | 1001.4 |
| 20260505084001 | 11 | 294 | 0.0 | 0.0 | 0.00 | 0.00 | 0.00 | 20 | 1001.1 |
| 20260505083458 | 11 | 292 | 0.0 | 0.0 | 0.00 | 0.00 | 0.00 | 19 | 1001.1 |
| 20260505082954 | 11 | 293 | 0.0 | 0.0 | 0.00 | 0.00 | 0.00 | 19 | 1001.1 |
| 20260505082450 | 11 | 293 | 0.0 | 0.0 | 0.00 | 0.00 | 0.00 | 19 | 1001.1 |
| 20260505081947 | 11 | 289 | 0.0 | 0.0 | 0.00 | 0.00 | 0.00 | 19 | 1001.4 |
| 20260505081444 | 11 | 290 | 0.0 | 0.0 | 0.00 | 0.00 | 0.00 | 19 | 1001.4 |
| 20260505080941 | 11 | 314 | 0.0 | 0.0 | 0.00 | 0.00 | 0.00 | 19 | 1001.1 |
| 20260505080437 | 11 | 285 | 0.0 | 0.0 | 0.00 | 0.00 | 0.00 | 19 | 1001.4 |
| 20260505075932 | 11 | 290 | 0.0 | 0.0 | 0.00 | 0.00 | 0.00 | 19 | 1001.4 |
| 20260505075430 | 12 | 291 | 0.0 | 1.6 | 0.00 | 0.00 | 0.00 | 18 | 1001.4 |
| 20260505074927 | 12 | 286 | 0.0 | 1.6 | 0.00 | 0.00 | 0.00 | 18 | 1001.4 |
| 20260505074424 | 12 | 290 | 0.0 | 0.0 | 0.00 | 0.00 | 0.00 | 18 | 1001.4 |
| 20260505073921 | 12 | 291 | 0.0 | 0.0 | 0.00 | 0.00 | 0.00 | 18 | 1001.4 |
| 20260505073419 | 12 | 293 | 0.0 | 1.6 | 0.00 | 0.00 | 0.00 | 17 | 1001.4 |
| 20260505072916 | 12 | 263 | 3.2 | 4.8 | 0.00 | 0.00 | 0.00 | 20 | 1001.4 |
| 20260505072412 | 13 | 266 | 3.2 | 4.8 | 0.00 | 0.00 | 0.00 | 20 | 1001.4 |
| 20260505071908 | 13 | 278 | 1.6 | 6.4 | 0.00 | 0.00 | 0.00 | 20 | 1001.4 |
| 20260505071404 | 13 | 250 | 1.6 | 9.7 | 0.00 | 0.00 | 0.00 | 20 | 1001.4 |
| 20260505070903 | 13 | 270 | 1.6 | 4.8 | 0.00 | 0.00 | 0.00 | 20 | 1001.4 |
| 20260505070358 | 13 | 256 | 3.2 | 4.8 | 0.00 | 0.00 | 0.00 | 20 | 1001.4 |
| 20260505065854 | 13 | 284 | 1.6 | 4.8 | 0.00 | 0.00 | 0.00 | 20 | 1001.4 |
| 20260505065351 | 13 | 258 | 3.2 | 6.4 | 0.00 | 0.00 | 0.00 | 20 | 1001.4 |
| 20260505064848 | 13 | 277 | 3.2 | 6.4 | 0.00 | 0.00 | 0.00 | 20 | 1001.4 |
| 20260505064345 | 13 | 250 | 6.4 | 9.7 | 0.00 | 0.00 | 0.00 | 19 | 1001.4 |
| 20260505063844 | 13 | 255 | 6.4 | 12.9 | 0.00 | 0.00 | 0.00 | 19 | 1001.4 |
| 20260505063339 | 13 | 259 | 6.4 | 9.7 | 0.00 | 0.00 | 0.00 | 19 | 1001.4 |
| 20260505062836 | 13 | 274 | 1.6 | 9.7 | 0.00 | 0.00 | 0.00 | 19 | 1001.8 |
| 20260505062333 | 13 | 258 | 3.2 | 11.3 | 0.00 | 0.00 | 0.00 | 19 | 1001.4 |
| 20260505061830 | 13 | 267 | 6.4 | 6.4 | 0.00 | 0.00 | 0.00 | 19 | 1001.1 |
| 20260505061328 | 13 | 205 | 4.8 | 9.7 | 0.00 | 0.00 | 0.00 | 18 | 1001.4 |
| 20260505060825 | 13 | 295 | 3.2 | 9.7 | 0.00 | 0.00 | 0.00 | 19 | 1001.4 |
| 20260505060322 | 13 | 263 | 4.8 | 11.3 | 0.00 | 0.00 | 0.00 | 18 | 1001.1 |
| 20260505055818 | 13 | 297 | 3.2 | 4.8 | 0.00 | 0.00 | 0.00 | 19 | 1001.4 |
| 20260505055314 | 13 | 249 | 1.6 | 4.8 | 0.00 | 0.00 | 0.00 | 19 | 1001.4 |
| 20260505054812 | 13 | 271 | 4.8 | 11.3 | 0.00 | 0.00 | 0.00 | 19 | 1001.4 |
| 20260505054309 | 13 | 291 | 1.6 | 4.8 | 0.00 | 0.00 | 0.00 | 21 | 1001.4 |
| 20260505053807 | 13 | 268 | 1.6 | 4.8 | 0.00 | 0.00 | 0.00 | 21 | 1001.4 |
| 20260505053304 | 13 | 255 | 3.2 | 4.8 | 0.00 | 0.00 | 0.00 | 21 | 1001.4 |
| 20260505052800 | 14 | 287 | 1.6 | 6.4 | 0.00 | 0.00 | 0.00 | 19 | 1001.4 |
| 20260505052257 | 14 | 270 | 1.6 | 4.8 | 0.00 | 0.00 | 0.00 | 19 | 1001.4 |
| 20260505051754 | 14 | 243 | 3.2 | 3.2 | 0.00 | 0.00 | 0.00 | 19 | 1001.4 |
| 20260505051252 | 14 | 245 | 1.6 | 4.8 | 0.00 | 0.00 | 0.00 | 19 | 1001.4 |
| 20260505050750 | 14 | 149 | 3.2 | 3.2 | 0.00 | 0.00 | 0.00 | 19 | 1001.4 |
| 20260505050248 | 14 | 237 | 3.2 | 4.8 | 0.00 | 0.00 | 0.00 | 19 | 1001.8 |
| 20260505041718 | 15 | 237 | 1.6 | 6.4 | 0.00 | 0.00 | 0.00 | 19 | 1001.4 |
| 20260505041215 | 15 | 248 | 0.0 | 3.2 | 0.00 | 0.00 | 0.00 | 19 | 1001.4 |
| 20260505040712 | 15 | 276 | 1.6 | 3.2 | 0.00 | 0.00 | 0.00 | 19 | 1001.4 |
| 20260505040209 | 14 | 291 | 0.0 | 3.2 | 0.00 | 0.00 | 0.00 | 18 | 1001.4 |
| 20260505035706 | 15 | 287 | 0.0 | 0.0 | 0.00 | 0.00 | 0.00 | 18 | 1001.1 |
| 20260505035202 | 15 | 281 | 1.6 | 9.7 | 0.00 | 0.00 | 0.00 | 18 | 1001.1 |
| 20260505034659 | 15 | 268 | 1.6 | 3.2 | 0.00 | 0.00 | 0.00 | 17 | 1001.1 |
| 20260505034156 | 15 | 280 | 0.0 | 4.8 | 0.00 | 0.00 | 0.00 | 17 | 1000.8 |
| 20260505033652 | 15 | 184 | 4.8 | 4.8 | 0.00 | 0.00 | 0.00 | 17 | 1000.8 |
| 20260505033151 | 15 | 278 | 1.6 | 6.4 | 0.00 | 0.00 | 0.00 | 17 | 1001.1 |
| 20260505032649 | 15 | 283 | 1.6 | 4.8 | 0.00 | 0.00 | 0.00 | 17 | 1000.8 |
| 20260505032144 | 15 | 227 | 3.2 | 4.8 | 0.00 | 0.00 | 0.00 | 17 | 1001.1 |
| 20260505031642 | 15 | 268 | 0.0 | 3.2 | 0.00 | 0.00 | 0.00 | 17 | 1001.1 |
| 20260505031138 | 15 | 271 | 1.6 | 4.8 | 0.00 | 0.00 | 0.00 | 17 | 1000.8 |
| 20260505030635 | 15 | 286 | 1.6 | 4.8 | 0.00 | 0.00 | 0.00 | 18 | 1001.1 |
| 20260505030131 | 15 | 143 | 3.2 | 6.4 | 0.00 | 0.00 | 0.00 | 17 | 1000.8 |
| 20260505025627 | 15 | 227 | 1.6 | 4.8 | 0.00 | 0.00 | 0.00 | 17 | 1000.8 |
| 20260505025126 | 15 | 293 | 1.6 | 3.2 | 0.00 | 0.00 | 0.00 | 18 | 1001.1 |
| 20260505024622 | 13 | 280 | 0.0 | 3.2 | 0.00 | 0.00 | 0.00 | 18 | 1001.1 |
| 20260505024120 | 13 | 293 | 0.0 | 0.0 | 0.00 | 0.00 | 0.00 | 20 | 1001.1 |
| 20260505023617 | 13 | 280 | 0.0 | 1.6 | 0.00 | 0.00 | 0.00 | 19 | 1000.8 |
| 20260505023114 | 13 | 278 | 0.0 | 0.0 | 0.00 | 0.00 | 0.00 | 19 | 1000.8 |
| 20260505022612 | 15 | 268 | 0.0 | 1.6 | 0.00 | 0.00 | 0.00 | 18 | 1000.8 |
| 20260505022109 | 15 | 264 | 0.0 | 1.6 | 0.00 | 0.00 | 0.00 | 18 | 1000.8 |
| 20260505021605 | 15 | 283 | 0.0 | 1.6 | 0.00 | 0.00 | 0.00 | 18 | 1000.8 |
| 20260505021102 | 15 | 289 | 0.0 | 0.0 | 0.00 | 0.00 | 0.00 | 18 | 1000.8 |
| 20260505020602 | 15 | 284 | 0.0 | 0.0 | 0.00 | 0.00 | 0.00 | 18 | 1000.8 |
| 20260505020059 | 15 | 33 | 1.6 | 1.6 | 0.00 | 0.00 | 0.00 | 18 | 1000.8 |
| 20260505015556 | 15 | 282 | 0.0 | 0.0 | 0.00 | 0.00 | 0.00 | 17 | 1000.4 |
| 20260505015053 | 15 | 286 | 0.0 | 0.0 | 0.00 | 0.00 | 0.00 | 17 | 1000.8 |
| 20260505014550 | 15 | 285 | 0.0 | 0.0 | 0.00 | 0.00 | 0.00 | 17 | 1000.8 |
| 20260505014047 | 15 | 289 | 0.0 | 1.6 | 0.00 | 0.00 | 0.00 | 17 | 1000.8 |
| 20260505013544 | 16 | 286 | 0.0 | 1.6 | 0.00 | 0.00 | 0.00 | 17 | 1000.4 |
| 20260505013041 | 16 | 284 | 0.0 | 1.6 | 0.00 | 0.00 | 0.00 | 17 | 1000.4 |
| 20260505012539 | 16 | 286 | 0.0 | 0.0 | 0.00 | 0.00 | 0.00 | 16 | 1000.4 |
| 20260505012036 | 16 | 270 | 0.0 | 1.6 | 0.00 | 0.00 | 0.00 | 16 | 1000.1 |
| 20260505011531 | 16 | 285 | 0.0 | 1.6 | 0.00 | 0.00 | 0.00 | 16 | 1000.1 |
| 20260505011029 | 16 | 267 | 0.0 | 1.6 | 0.00 | 0.00 | 0.00 | 16 | 1000.1 |
| 20260505010524 | 16 | 290 | 0.0 | 1.6 | 0.00 | 0.00 | 0.00 | 17 | 1000.1 |
| 20260505010021 | 16 | 284 | 0.0 | 0.0 | 0.00 | 0.00 | 0.00 | 17 | 1000.1 |
| 20260505005517 | 16 | 291 | 0.0 | 0.0 | 0.00 | 0.00 | 0.00 | 17 | 1000.1 |
| 20260505005015 | 16 | 289 | 0.0 | 0.0 | 0.00 | 0.00 | 0.00 | 17 | 999.7 |
| 20260505004512 | 16 | 288 | 0.0 | 0.0 | 0.00 | 0.00 | 0.00 | 16 | 999.7 |
| 20260505004008 | 17 | 286 | 0.0 | 0.0 | 0.00 | 0.00 | 0.00 | 15 | 999.7 |
| 20260505003506 | 16 | 288 | 0.0 | 0.0 | 0.00 | 0.00 | 0.00 | 16 | 999.7 |
| 20260505003003 | 17 | 282 | 0.0 | 0.0 | 0.00 | 0.00 | 0.00 | 15 | 999.7 |
| 20260505002458 | 17 | 277 | 0.0 | 0.0 | 0.00 | 0.00 | 0.00 | 15 | 999.1 |
| 20260505001957 | 17 | 266 | 0.0 | 1.6 | 0.00 | 0.00 | 0.00 | 18 | 999.1 |
| 20260505001454 | 18 | 284 | 0.0 | 0.0 | 0.00 | 0.00 | 0.00 | 21 | 999.4 |
| 20260505000950 | 17 | 292 | 0.0 | 1.6 | 0.00 | 0.00 | 0.00 | 20 | 999.1 |
| 20260505000449 | 17 | 289 | 0.0 | 1.6 | 0.00 | 0.00 | 0.00 | 20 | 999.1 |
| 20260504235945 | 17 | 286 | 0.0 | 0.0 | 0.00 | 0.00 | 0.00 | 20 | 999.4 |
| 20260504235442 | 18 | 290 | 0.0 | 0.0 | 0.00 | 0.00 | 0.00 | 21 | 999.1 |
| 20260504234939 | 18 | 290 | 0.0 | 0.0 | 0.00 | 0.00 | 0.00 | 20 | 999.1 |
| 20260504234436 | 18 | 290 | 0.0 | 0.0 | 0.00 | 0.00 | 0.00 | 19 | 999.1 |
| 20260504233932 | 19 | 273 | 1.6 | 4.8 | 0.00 | 0.00 | 0.00 | 19 | 998.7 |
| 20260504233428 | 19 | 290 | 0.0 | 3.2 | 0.00 | 0.00 | 0.00 | 19 | 999.1 |
| 20260504232925 | 19 | 256 | 3.2 | 4.8 | 0.00 | 0.00 | 0.00 | 19 | 999.1 |
| 20260504232423 | 19 | 281 | 3.2 | 4.8 | 0.00 | 0.00 | 0.00 | 18 | 998.7 |
| 20260504231919 | 20 | 253 | 4.8 | 9.7 | 0.00 | 0.00 | 0.00 | 20 | 998.7 |
| 20260504231416 | 20 | 236 | 3.2 | 6.4 | 0.00 | 0.00 | 0.00 | 18 | 998.7 |
| 20260504230912 | 20 | 264 | 6.4 | 6.4 | 0.00 | 0.00 | 0.00 | 18 | 998.7 |
| 20260504230409 | 20 | 263 | 6.4 | 6.4 | 0.00 | 0.00 | 0.00 | 18 | 998.7 |
| 20260504225908 | 20 | 258 | 3.2 | 6.4 | 0.00 | 0.00 | 0.00 | 19 | 998.4 |
| 20260504225359 | 20 | 284 | 4.8 | 9.7 | 0.00 | 0.00 | 0.00 | 18 | 998.4 |
| 20260504224856 | 20 | 255 | 4.8 | 11.3 | 0.00 | 0.00 | 0.00 | 16 | 998.1 |
| 20260504224353 | 20 | 254 | 6.4 | 9.7 | 0.00 | 0.00 | 0.00 | 16 | 998.1 |
| 20260504223850 | 20 | 257 | 6.4 | 11.3 | 0.00 | 0.00 | 0.00 | 15 | 998.1 |
| 20260504223345 | 20 | 266 | 8.0 | 12.9 | 0.00 | 0.00 | 0.00 | 15 | 998.4 |
| 20260504222842 | 20 | 258 | 9.7 | 14.5 | 0.00 | 0.00 | 0.00 | 14 | 998.1 |
| 20260504222339 | 20 | 243 | 8.0 | 9.7 | 0.00 | 0.00 | 0.00 | 14 | 998.1 |
| 20260504221837 | 20 | 275 | 3.2 | 4.8 | 0.00 | 0.00 | 0.00 | 17 | 998.1 |
| 20260504221333 | 20 | 257 | 4.8 | 9.7 | 0.00 | 0.00 | 0.00 | 18 | 998.1 |
| 20260504220831 | 20 | 255 | 9.7 | 24.1 | 0.00 | 0.00 | 0.00 | 18 | 998.4 |
| 20260504220327 | 20 | 259 | 4.8 | 14.5 | 0.00 | 0.00 | 0.00 | 17 | 998.1 |
| 20260504215824 | 20 | 278 | 6.4 | 16.1 | 0.00 | 0.00 | 0.00 | 20 | 998.1 |
| 20260504215321 | 20 | 266 | 8.0 | 12.9 | 0.00 | 0.00 | 0.00 | 19 | 998.1 |
| 20260504214817 | 18 | 263 | 4.8 | 6.4 | 0.00 | 0.00 | 0.00 | 20 | 998.1 |
| 20260504214315 | 20 | 255 | 6.4 | 9.7 | 0.00 | 0.00 | 0.00 | 17 | 998.1 |
| 20260504213811 | 20 | 264 | 4.8 | 11.3 | 0.00 | 0.00 | 0.00 | 19 | 998.1 |
| 20260504213307 | 20 | 274 | 6.4 | 11.3 | 0.00 | 0.00 | 0.00 | 19 | 998.1 |
| 20260504212804 | 20 | 270 | 8.0 | 16.1 | 0.00 | 0.00 | 0.00 | 18 | 998.1 |
| 20260504212300 | 20 | 269 | 4.8 | 16.1 | 0.00 | 0.00 | 0.00 | 16 | 998.4 |
| 20260504211758 | 20 | 292 | 6.4 | 14.5 | 0.00 | 0.00 | 0.00 | 13 | 998.1 |
| 20260504211254 | 20 | 265 | 11.3 | 16.1 | 0.00 | 0.00 | 0.00 | 18 | 998.1 |
| 20260504210752 | 20 | 259 | 6.4 | 11.3 | 0.00 | 0.00 | 0.00 | 17 | 998.1 |
| 20260504210249 | 20 | 269 | 8.0 | 11.3 | 0.00 | 0.00 | 0.00 | 18 | 998.1 |
| 20260504205746 | 19 | 260 | 9.7 | 14.5 | 0.00 | 0.00 | 0.00 | 19 | 997.7 |
| 20260504205243 | 19 | 263 | 6.4 | 12.9 | 0.00 | 0.00 | 0.00 | 19 | 998.1 |
| 20260504204741 | 19 | 261 | 9.7 | 11.3 | 0.00 | 0.00 | 0.00 | 19 | 998.1 |
| 20260504204239 | 19 | 264 | 8.0 | 9.7 | 0.00 | 0.00 | 0.00 | 19 | 998.1 |
| 20260504203739 | 19 | 277 | 4.8 | 6.4 | 0.00 | 0.00 | 0.00 | 19 | 997.7 |
| 20260504203235 | 19 | 270 | 3.2 | 6.4 | 0.00 | 0.00 | 0.00 | 19 | 998.1 |
| 20260504202735 | 18 | 273 | 6.4 | 9.7 | 0.00 | 0.00 | 0.00 | 20 | 998.1 |
| 20260504202233 | 18 | 290 | 4.8 | 6.4 | 0.00 | 0.00 | 0.00 | 19 | 998.1 |
| 20260504201730 | 18 | 287 | 4.8 | 12.9 | 0.00 | 0.00 | 0.00 | 19 | 998.1 |
| 20260504201227 | 18 | 287 | 6.4 | 12.9 | 0.00 | 0.00 | 0.00 | 19 | 998.1 |
| 20260504200725 | 19 | 257 | 12.9 | 14.5 | 0.00 | 0.00 | 0.00 | 19 | 998.1 |
| 20260504200220 | 19 | 291 | 6.4 | 11.3 | 0.00 | 0.00 | 0.00 | 20 | 998.1 |
| 20260504195717 | 20 | 257 | 8.0 | 11.3 | 0.00 | 0.00 | 0.00 | 19 | 998.1 |
| 20260504195213 | 19 | 265 | 11.3 | 16.1 | 0.00 | 0.00 | 0.00 | 19 | 998.1 |
| 20260504194710 | 20 | 271 | 4.8 | 11.3 | 0.00 | 0.00 | 0.00 | 18 | 998.4 |
| 20260504194206 | 19 | 269 | 8.0 | 14.5 | 0.00 | 0.00 | 0.00 | 19 | 998.1 |
| 20260504193703 | 20 | 256 | 6.4 | 12.9 | 0.00 | 0.00 | 0.00 | 20 | 998.1 |
| 20260504193200 | 19 | 247 | 12.9 | 20.9 | 0.00 | 0.00 | 0.00 | 19 | 998.4 |
| 20260504192658 | 18 | 254 | 8.0 | 12.9 | 0.00 | 0.00 | 0.00 | 19 | 998.1 |
| 20260504192156 | 18 | 262 | 11.3 | 12.9 | 0.00 | 0.00 | 0.00 | 20 | 998.1 |
| 20260504191655 | 18 | 244 | 11.3 | 17.7 | 0.00 | 0.00 | 0.00 | 19 | 998.4 |
| 20260504191150 | 18 | 258 | 8.0 | 12.9 | 0.00 | 0.00 | 0.00 | 18 | 998.4 |
| 20260504190646 | 18 | 291 | 4.8 | 9.7 | 0.00 | 0.00 | 0.00 | 19 | 998.4 |
| 20260504190143 | 18 | 291 | 9.7 | 14.5 | 0.00 | 0.00 | 0.00 | 20 | 998.4 |
| 20260504185640 | 18 | 265 | 11.3 | 16.1 | 0.00 | 0.00 | 0.00 | 20 | 998.4 |
| 20260504185136 | 18 | 291 | 4.8 | 9.7 | 0.00 | 0.00 | 0.00 | 19 | 998.4 |
| 20260504184633 | 18 | 266 | 9.7 | 14.5 | 0.00 | 0.00 | 0.00 | 20 | 998.4 |
| 20260504184127 | 18 | 257 | 8.0 | 11.3 | 0.00 | 0.00 | 0.00 | 21 | 998.4 |
| 20260504183625 | 18 | 285 | 6.4 | 11.3 | 0.00 | 0.00 | 0.00 | 21 | 998.4 |
| 20260504183122 | 18 | 289 | 9.7 | 12.9 | 0.00 | 0.00 | 0.00 | 21 | 998.4 |
| 20260504182620 | 18 | 277 | 14.5 | 17.7 | 0.00 | 0.00 | 0.00 | 20 | 998.1 |
| 20260504182117 | 17 | 254 | 11.3 | 14.5 | 0.00 | 0.00 | 0.00 | 18 | 998.4 |
| 20260504181614 | 18 | 265 | 14.5 | 22.5 | 0.00 | 0.00 | 0.00 | 20 | 998.4 |
| 20260504181112 | 18 | 258 | 17.7 | 24.1 | 0.00 | 0.00 | 0.00 | 20 | 998.4 |
| 20260504180611 | 18 | 253 | 14.5 | 17.7 | 0.00 | 0.00 | 0.00 | 20 | 998.4 |
| 20260504180109 | 18 | 255 | 11.3 | 17.7 | 0.00 | 0.00 | 0.00 | 20 | 998.4 |
| 20260504175606 | 18 | 265 | 6.4 | 12.9 | 0.00 | 0.00 | 0.00 | 20 | 998.4 |
| 20260504175103 | 18 | 257 | 14.5 | 16.1 | 0.00 | 0.00 | 0.00 | 20 | 998.4 |
| 20260504174601 | 18 | 250 | 11.3 | 14.5 | 0.00 | 0.00 | 0.00 | 20 | 998.1 |
| 20260504174057 | 18 | 257 | 12.9 | 16.1 | 0.00 | 0.00 | 0.00 | 20 | 998.4 |
| 20260504173554 | 18 | 267 | 6.4 | 12.9 | 0.00 | 0.00 | 0.00 | 20 | 998.1 |
| 20260504173052 | 17 | 247 | 9.7 | 20.9 | 0.00 | 0.00 | 0.00 | 20 | 998.4 |
| 20260504172548 | 17 | 176 | 6.4 | 16.1 | 0.00 | 0.00 | 0.00 | 20 | 998.4 |
| 20260504172044 | 17 | 284 | 1.6 | 12.9 | 0.00 | 0.00 | 0.00 | 18 | 998.4 |
| 20260504171541 | 17 | 277 | 4.8 | 11.3 | 0.00 | 0.00 | 0.00 | 18 | 998.4 |
| 20260504171038 | 17 | 270 | 9.7 | 12.9 | 0.00 | 0.00 | 0.00 | 18 | 998.4 |
| 20260504170534 | 17 | 264 | 11.3 | 12.9 | 0.00 | 0.00 | 0.00 | 18 | 998.4 |
| 20260504150918 | 15 | 292 | 14.5 | 14.5 | 0.00 | 0.00 | 0.00 | 17 | 999.1 |
| 20260504150415 | 15 | 268 | 14.5 | 16.1 | 0.00 | 0.00 | 0.00 | 18 | 999.4 |
| 20260504140835 | 13 | 263 | 14.5 | 16.1 | 0.00 | 0.00 | 0.00 | 20 | 1000.4 |
| 20260504140331 | 12 | 254 | 3.2 | 14.5 | 0.00 | 0.00 | 0.00 | 18 | 1000.4 |
| 20260504130759 | 11 | 262 | 9.7 | 9.7 | 0.00 | 0.00 | 0.00 | 18 | 1000.8 |
| 20260504130255 | 11 | 252 | 6.4 | 12.9 | 0.00 | 0.00 | 0.00 | 18 | 1000.8 |